Weather reports worldwide

Advertisment
Cabo Busto, Spain (8010): temperature & dewpoint: 17.09.2018 03:00:00 - 23.09.2018 03:00:00 (CEST)Cabo Busto, Spain (8010): wind speed & gusts: 17.09.2018 03:00:00 - 23.09.2018 03:00:00 (CEST)Cabo Busto, Spain (8010): wind direction: 17.09.2018 03:00:00 - 23.09.2018 03:00:00 (CEST)Cabo Busto, Spain (8010): reduced air pressure: 17.09.2018 03:00:00 - 23.09.2018 03:00:00 (CEST)Cabo Busto, Spain (8010): visibility: 17.09.2018 03:00:00 - 23.09.2018 03:00:00 (CEST)Cabo Busto, Spain (8010): sunshine duration: 17.09.2018 03:00:00 - 23.09.2018 03:00:00 (CEST)Cabo Busto, Spain (8010): precipitation: 17.09.2018 03:00:00 - 23.09.2018 03:00:00 (CEST)
Date & Time tt [°C] td [°C] ff [km/h] ff [kn] fx [km/h] fx [kn] dd ppp [hPa] vv [km] sd [min] rr [mm]
23.09.2018 03:00:00 - - - - - - - - - - -
23.09.2018 02:00:00 18,6 16,6 16 8 24 13 SE 1024,0 19 0 -
23.09.2018 01:00:00 18,5 16,5 16 9 22 12 SSE 1024,2 19 0 0,0
23.09.2018 00:00:00 18,5 16,3 10 6 13 7 SSE 1024,5 20 0 0,0
22.09.2018 23:00:00 18,5 16,3 13 7 15 8 SSE 1024,4 20 0 0,0
22.09.2018 22:00:00 19,7 16,7 8 5 11 6 SW 1024,2 20 0 0,0
22.09.2018 21:00:00 19,9 16,7 9 5 10 5 W 1023,7 20 0 0,0
22.09.2018 20:00:00 20,6 16,8 6 3 9 5 SW 1023,3 20 40 -
22.09.2018 19:00:00 22,0 17,5 6 3 10 5 W 1023,1 14 60 0,0
22.09.2018 18:00:00 22,9 17,6 5 3 10 5 W 1023,0 7 60 0,0
22.09.2018 17:00:00 23,3 17,8 5 3 11 6 W 1023,0 7 60 0,0
22.09.2018 16:00:00 22,9 17,4 6 3 9 5 W 1023,4 11 60 0,0
22.09.2018 15:00:00 22,0 17,0 7 4 10 5 WNW 1023,3 20 60 0,0
22.09.2018 14:00:00 21,5 16,0 6 4 9 5 NW 1023,3 20 60 -
22.09.2018 13:00:00 21,7 16,2 4 2 12 7 NW 1023,3 20 60 0,0
22.09.2018 12:00:00 20,9 15,9 6 3 9 5 N 1022,8 20 60 0,0
22.09.2018 11:00:00 22,0 16,7 9 5 15 8 SSE 1022,4 20 60 0,0
22.09.2018 10:00:00 19,2 15,9 11 6 19 11 SSE 1021,9 20 60 0,0
22.09.2018 09:00:00 16,5 14,5 14 8 18 10 SSE 1021,8 20 22 0,0
22.09.2018 08:00:00 16,0 14,0 13 7 19 10 SSE 1021,6 20 0 -
22.09.2018 07:00:00 15,8 13,9 12 7 18 10 SSE 1021,2 19 0 0,0
22.09.2018 06:00:00 16,0 14,1 12 6 18 10 SSE 1021,3 20 0 0,0
22.09.2018 05:00:00 15,4 13,8 10 6 16 9 S 1021,1 15 0 0,0
22.09.2018 04:00:00 15,7 13,9 4 2 16 8 ESE 1021,8 12 0 0,0
22.09.2018 03:00:00 16,0 14,0 9 5 14 7 ESE 1022,2 20 0 0,0
22.09.2018 02:00:00 16,7 14,5 11 6 15 8 SW 1022,5 11 0 -
22.09.2018 01:00:00 16,5 14,3 10 5 14 8 W 1022,9 7 0 0,0
22.09.2018 00:00:00 17,0 14,4 12 6 19 10 E 1022,5 7 0 0,0
21.09.2018 23:00:00 16,8 14,2 9 5 22 12 E 1022,7 9 0 0,0
21.09.2018 22:00:00 17,0 14,6 15 8 23 12 ENE 1023,3 16 0 0,0
21.09.2018 21:00:00 17,2 14,4 11 6 23 12 E 1023,1 15 0 0,0
21.09.2018 20:00:00 17,2 14,6 14 7 24 13 ENE 1022,7 6 0 -
21.09.2018 19:00:00 17,3 14,7 12 7 18 10 ENE 1022,7 10 0 0,0
21.09.2018 18:00:00 17,1 15,3 7 4 15 8 E 1022,7 5 0 0,0
21.09.2018 17:00:00 17,4 15,3 4 2 11 6 W 1022,7 2,3 0 0,0
21.09.2018 16:00:00 18,1 15,5 5 3 10 5 SE 1022,2 4,8 0 0,0
21.09.2018 15:00:00 18,0 15,6 8 4 14 8 E 1022,2 10 0 0,0
21.09.2018 14:00:00 17,7 15,5 9 5 14 8 ENE 1022,1 4,3 0 -
21.09.2018 13:00:00 17,8 15,8 6 4 16 9 N 1022,1 12 0 0,0
21.09.2018 12:00:00 18,1 16,0 12 6 29 16 W 1021,7 6 0 0,0
21.09.2018 11:00:00 17,9 15,9 22 12 30 16 W 1020,9 17 0 0,0
21.09.2018 10:00:00 18,7 15,5 23 12 39 21 W 1019,7 9 0 0,0
21.09.2018 09:00:00 20,8 12,7 19 11 41 22 W 1018,5 19 0 0,0
21.09.2018 08:00:00 20,8 12,5 26 14 44 24 WSW 1018,0 20 0 -
21.09.2018 07:00:00 20,8 12,2 18 10 37 20 WSW 1017,3 20 0 0,0
21.09.2018 06:00:00 19,8 12,7 22 12 29 16 W 1017,1 20 0 0,0
21.09.2018 05:00:00 20,7 11,9 12 6 31 17 SSW 1016,4 20 0 0,0
21.09.2018 04:00:00 19,8 12,5 22 12 32 17 W 1016,6 20 0 0,0
21.09.2018 03:00:00 19,8 12,7 19 10 28 15 W 1016,7 20 0 0,0
21.09.2018 02:00:00 19,8 12,7 20 11 35 19 W 1017,0 20 0 -
21.09.2018 01:00:00 19,3 11,1 16 9 25 13 SW 1017,3 20 0 0,0
21.09.2018 00:00:00 18,9 13,9 9 5 22 12 SSE 1017,7 14 0 0,0
20.09.2018 23:00:00 18,3 14,8 13 7 30 16 SW 1017,6 20 0 0,0
20.09.2018 22:00:00 18,2 15,1 23 13 33 18 SSE 1017,1 20 0 0,0
20.09.2018 21:00:00 17,9 15,2 20 11 26 14 SSE 1017,4 20 0 0,0
20.09.2018 20:00:00 18,2 15,3 13 7 16 9 SSE 1017,7 18 32 -
20.09.2018 19:00:00 18,6 16,0 8 4 15 8 SSW 1017,9 9 13 0,0
20.09.2018 18:00:00 18,8 16,2 7 4 10 5 WNW 1017,4 1,4 16 0,0
20.09.2018 17:00:00 20,3 16,0 6 4 10 6 W 1017,4 1,9 60 0,0
20.09.2018 16:00:00 21,0 16,0 8 5 12 6 W 1018,0 3,2 60 0,0
20.09.2018 15:00:00 21,1 15,4 6 3 8 5 WNW 1018,4 2,1 60 0,0
20.09.2018 14:00:00 21,1 15,0 4 2 5 3 NW 1018,6 14 60 -
20.09.2018 13:00:00 19,7 14,3 5 3 6 4 NNW 1019,4 6 60 0,0
20.09.2018 12:00:00 20,0 14,3 4 2 8 4 W 1019,4 15 60 0,0
20.09.2018 11:00:00 20,1 14,4 3 2 15 8 W 1019,2 1,3 60 0,0
20.09.2018 10:00:00 17,1 13,7 13 7 19 11 SSE 1019,4 20 60 0,0
20.09.2018 09:00:00 14,7 12,4 15 8 20 11 SSE 1019,5 20 23 0,0
20.09.2018 08:00:00 14,5 12,2 14 7 24 13 SSE 1019,3 20 0 -
20.09.2018 07:00:00 14,4 12,1 14 8 22 12 SSE 1019,6 20 0 0,0
20.09.2018 06:00:00 14,3 12,0 11 6 18 10 SSE 1019,8 20 0 0,0
20.09.2018 05:00:00 14,2 11,9 13 7 18 10 SSE 1020,0 20 0 0,0
20.09.2018 04:00:00 14,7 12,2 10 6 14 8 S 1020,5 20 0 0,0
20.09.2018 03:00:00 15,7 13,1 8 5 25 13 WSW 1020,9 16 0 0,0
20.09.2018 02:00:00 15,6 12,7 21 11 29 16 SSE 1021,2 20 0 -
20.09.2018 01:00:00 15,8 13,0 19 11 26 14 SE 1021,6 20 0 0,0
20.09.2018 00:00:00 16,0 13,0 21 11 26 14 SE 1022,1 20 0 0,0
19.09.2018 23:00:00 15,6 12,7 12 6 15 8 SSE 1022,4 20 0 0,0
19.09.2018 22:00:00 16,4 12,3 0 0 8 4 N 1022,1 20 0 0,0
19.09.2018 21:00:00 18,1 12,3 3 1 10 6 NE 1021,6 20 14 0,0
19.09.2018 20:00:00 19,3 12,7 7 4 15 8 ESE 1021,1 20 60 -
19.09.2018 19:00:00 19,8 13,5 11 6 22 12 ENE 1021,1 20 60 0,0
19.09.2018 18:00:00 20,6 13,8 12 6 19 11 E 1020,7 20 60 0,0
19.09.2018 17:00:00 21,7 13,1 9 5 18 10 E 1020,8 20 60 0,0
19.09.2018 16:00:00 22,2 13,6 10 5 18 10 E 1021,2 20 60 0,0
19.09.2018 15:00:00 21,8 14,9 10 5 14 8 E 1021,4 16 60 0,0
19.09.2018 14:00:00 22,0 14,4 7 4 9 5 E 1021,6 20 60 -
19.09.2018 13:00:00 21,5 14,9 6 3 9 5 E 1021,6 20 60 0,0
19.09.2018 12:00:00 20,6 14,9 5 3 7 4 ENE 1021,5 16 60 0,0
19.09.2018 11:00:00 19,5 15,2 5 3 10 6 W 1021,2 14 60 0,0
19.09.2018 10:00:00 19,1 15,8 6 4 11 6 SSE 1020,5 16 60 0,0
19.09.2018 09:00:00 16,8 14,4 9 5 14 7 SSE 1020,0 17 21 0,0
19.09.2018 08:00:00 17,1 14,5 6 3 11 6 S 1019,7 16 0 -
19.09.2018 07:00:00 17,2 14,3 11 6 18 10 SSE 1019,5 17 0 0,0
19.09.2018 06:00:00 17,8 14,3 12 7 22 12 WSW 1019,4 15 0 0,0
19.09.2018 05:00:00 17,3 14,4 16 9 26 14 WSW 1019,4 10 0 0,0
19.09.2018 04:00:00 16,8 14,0 11 6 14 7 SSE 1019,1 16 0 0,0
19.09.2018 03:00:00 18,2 14,7 8 5 17 9 S 1019,3 20 0 0,0
19.09.2018 02:00:00 18,2 14,5 15 8 21 11 SE 1018,9 20 0 -
19.09.2018 01:00:00 18,2 14,7 13 7 18 10 SSE 1019,3 19 0 0,0
19.09.2018 00:00:00 18,3 15,2 10 5 12 7 SSE 1019,9 20 0 0,0
18.09.2018 23:00:00 18,5 15,7 5 3 7 4 S 1019,8 16 0 0,0
18.09.2018 22:00:00 18,6 15,9 6 3 8 4 ESE 1019,3 13 0 0,0
18.09.2018 21:00:00 18,7 16,0 3 1 9 5 NE 1018,7 12 0 0,0
18.09.2018 20:00:00 19,2 16,2 4 2 8 4 ESE 1018,1 12 8 -
18.09.2018 19:00:00 19,4 15,9 4 2 9 5 ENE 1017,6 10 55 0,0
18.09.2018 18:00:00 20,0 16,0 4 2 14 8 WSW 1017,3 3,7 51 0,0
18.09.2018 17:00:00 21,4 17,0 10 5 13 7 W 1017,6 7 60 0,0
18.09.2018 16:00:00 20,2 15,2 5 3 11 6 NE 1017,3 12 60 0,0
18.09.2018 15:00:00 20,0 15,4 6 4 12 6 ENE 1017,3 16 60 0,0
18.09.2018 14:00:00 20,4 15,4 7 4 10 6 E 1017,2 11 60 -
18.09.2018 13:00:00 19,2 15,1 6 3 10 5 ENE 1017,2 6 60 0,0
18.09.2018 12:00:00 18,8 14,7 4 2 11 6 NE 1017,0 7 60 0,0
18.09.2018 11:00:00 20,8 15,8 5 3 16 9 ESE 1016,6 17 60 0,0
18.09.2018 10:00:00 17,7 14,2 13 7 22 12 SE 1015,8 20 60 0,0
18.09.2018 09:00:00 15,2 13,3 14 7 19 11 SSE 1015,9 20 25 0,0
18.09.2018 08:00:00 14,8 13,1 10 5 16 9 SE 1015,6 15 0 -
18.09.2018 07:00:00 15,1 13,3 9 5 14 8 SE 1015,3 15 0 0,0
18.09.2018 06:00:00 15,6 13,7 12 6 16 9 SSE 1015,1 10 0 0,0
18.09.2018 05:00:00 16,8 14,8 13 7 27 15 WSW 1015,0 11 0 0,0
18.09.2018 04:00:00 16,3 14,5 24 13 29 16 W 1014,8 5 0 0,0
18.09.2018 03:00:00 16,9 14,1 10 5 17 9 WSW 1014,8 2,8 0 0,0
18.09.2018 02:00:00 17,3 14,7 16 9 23 12 SSE 1014,7 20 0 -
18.09.2018 01:00:00 18,3 15,2 13 7 22 12 E 1014,9 19 0 0,0
18.09.2018 00:00:00 18,6 15,6 16 9 25 13 E 1014,5 20 0 0,0
17.09.2018 23:00:00 17,4 15,3 14 8 23 12 ESE 1014,5 20 0 0,0
17.09.2018 22:00:00 16,7 15,1 12 6 17 9 ESE 1014,8 5 0 0,0
17.09.2018 21:00:00 16,7 14,9 4 2 11 6 E 1014,3 0,1 0 0,0
17.09.2018 20:00:00 17,7 15,3 3 2 16 8 NNW 1013,9 5 1 -
17.09.2018 19:00:00 18,1 15,3 10 6 18 10 W 1013,5 8 16 0,0
17.09.2018 18:00:00 22,1 16,6 7 4 13 7 W 1013,3 20 60 0,0
17.09.2018 17:00:00 21,8 14,9 3 2 9 5 ENE 1012,8 20 60 0,0
17.09.2018 16:00:00 21,9 14,5 4 2 11 6 NE 1012,9 20 60 0,0
17.09.2018 15:00:00 22,1 14,5 5 3 10 5 N 1013,5 20 60 0,0
17.09.2018 14:00:00 21,8 15,4 3 2 11 6 N 1013,9 20 60 -
17.09.2018 13:00:00 21,5 14,9 6 4 10 5 NE 1014,1 20 60 0,0
17.09.2018 12:00:00 21,4 15,4 3 1 8 4 N 1014,3 20 60 0,0
17.09.2018 11:00:00 21,2 16,1 5 3 11 6 SE 1014,3 20 60 0,0
17.09.2018 10:00:00 18,4 15,3 9 5 17 9 SSE 1014,0 20 60 0,0
17.09.2018 09:00:00 16,0 14,0 13 7 16 9 SSE 1014,1 20 26 0,0
17.09.2018 08:00:00 15,3 13,5 13 7 16 8 SSE 1014,1 19 0 -
17.09.2018 07:00:00 15,5 13,9 8 5 16 9 S 1014,3 12 0 0,0
17.09.2018 06:00:00 15,4 13,9 6 3 11 6 S 1014,8 6 0 0,0
17.09.2018 05:00:00 15,1 13,7 6 4 11 6 SSE 1015,6 6 0 0,0
17.09.2018 04:00:00 15,5 14,0 7 4 10 6 SSE 1016,0 5 0 0,0
17.09.2018 03:00:00 16,0 14,3 6 3 10 6 S 1016,8 7 0 0,0

tt = temperature
td = dewpoint
ff = wind speed
fx = gusts
dd = wind direction
ppp = reduced air pressure
vv = visibility
sd = sunshine duration
rr = precipitation

Next stations